| time (UTC) | temp F | wind direction | speed MPH | gust MPH | rain 1hr in | rain 24hr in | rain mn in | humidity % | barometer mb |
| 20260504021528 | 39 | 252 | 7.0 | 12.0 | 0.00 | 0.00 | 0.00 | 70 | 1009.2 |
| 20260504021012 | 39 | 276 | 7.0 | 10.0 | 0.00 | 0.00 | 0.00 | 69 | 1009.2 |
| 20260504020511 | 39 | 266 | 6.0 | 10.0 | 0.00 | 0.00 | 0.00 | 69 | 1009.2 |
| 20260504020029 | 40 | 274 | 7.0 | 11.0 | 0.00 | 0.00 | 0.00 | 69 | 1009.2 |
| 20260504015513 | 40 | 265 | 6.0 | 12.0 | 0.00 | 0.01 | 0.00 | 69 | 1009.3 |
| 20260504015013 | 40 | 280 | 5.0 | 12.0 | 0.00 | 0.01 | 0.00 | 68 | 1009.3 |
| 20260504014534 | 40 | 243 | 7.0 | 13.0 | 0.00 | 0.01 | 0.00 | 68 | 1009.2 |
| 20260504014012 | 40 | 287 | 7.0 | 13.0 | 0.00 | 0.01 | 0.00 | 68 | 1009.2 |
| 20260504013511 | 40 | 279 | 7.0 | 11.0 | 0.00 | 0.01 | 0.00 | 67 | 1009.3 |
| 20260504013040 | 40 | 273 | 7.0 | 14.0 | 0.00 | 0.01 | 0.00 | 68 | 1009.3 |
| 20260504012516 | 40 | 271 | 8.0 | 14.0 | 0.00 | 0.01 | 0.00 | 68 | 1009.2 |
| 20260504012013 | 40 | 284 | 6.0 | 13.0 | 0.00 | 0.01 | 0.00 | 67 | 1009.1 |
| 20260504011528 | 41 | 291 | 7.0 | 13.0 | 0.00 | 0.01 | 0.00 | 66 | 1009.1 |
| 20260504011013 | 41 | 281 | 8.0 | 13.0 | 0.00 | 0.01 | 0.00 | 66 | 1009.0 |
| 20260504010516 | 41 | 262 | 6.0 | 16.0 | 0.00 | 0.01 | 0.00 | 66 | 1009.0 |
| 20260504010030 | 41 | 302 | 7.0 | 16.0 | 0.00 | 0.01 | 0.00 | 65 | 1008.9 |
| 20260504005512 | 41 | 315 | 8.0 | 16.0 | 0.00 | 0.04 | 0.00 | 64 | 1008.8 |
| 20260504005013 | 41 | 303 | 8.0 | 17.0 | 0.00 | 0.04 | 0.00 | 65 | 1008.8 |
| 20260504004528 | 41 | 280 | 7.0 | 17.0 | 0.00 | 0.04 | 0.00 | 65 | 1008.7 |
| 20260504004012 | 41 | 282 | 7.0 | 13.0 | 0.00 | 0.04 | 0.00 | 64 | 1008.6 |
| 20260504003513 | 42 | 301 | 7.0 | 12.0 | 0.00 | 0.04 | 0.00 | 64 | 1008.5 |
| 20260504003032 | 42 | 304 | 4.0 | 13.0 | 0.00 | 0.04 | 0.00 | 63 | 1008.5 |
| 20260504002511 | 42 | 294 | 6.0 | 13.0 | 0.00 | 0.04 | 0.00 | 63 | 1008.5 |
| 20260504002010 | 42 | 273 | 7.0 | 15.0 | 0.00 | 0.04 | 0.00 | 62 | 1008.5 |
| 20260504001531 | 42 | 305 | 9.0 | 15.0 | 0.00 | 0.04 | 0.00 | 62 | 1008.4 |
| 20260504001013 | 42 | 284 | 8.0 | 16.0 | 0.00 | 0.04 | 0.00 | 62 | 1008.3 |
| 20260504000514 | 43 | 325 | 9.0 | 16.0 | 0.00 | 0.04 | 0.00 | 62 | 1008.2 |
| 20260504000030 | 43 | 286 | 7.0 | 14.0 | 0.00 | 0.04 | 0.00 | 61 | 1008.1 |
| 20260503235510 | 43 | 298 | 6.0 | 15.0 | 0.00 | 0.06 | 0.00 | 61 | 1008.0 |
| 20260503235013 | 44 | 311 | 7.0 | 17.0 | 0.00 | 0.06 | 0.00 | 58 | 1007.9 |
| 20260503234531 | 44 | 312 | 8.0 | 19.0 | 0.00 | 0.06 | 0.00 | 58 | 1007.9 |
| 20260503234011 | 44 | 315 | 9.0 | 23.0 | 0.00 | 0.06 | 0.00 | 57 | 1007.9 |
| 20260503233511 | 44 | 352 | 7.0 | 23.0 | 0.00 | 0.06 | 0.00 | 58 | 1007.7 |
| 20260503233034 | 45 | 330 | 10.0 | 23.0 | 0.00 | 0.06 | 0.00 | 56 | 1007.7 |
| 20260503232512 | 45 | 342 | 9.0 | 22.0 | 0.00 | 0.06 | 0.00 | 57 | 1007.7 |
| 20260503232012 | 45 | 307 | 12.0 | 22.0 | 0.00 | 0.06 | 0.00 | 56 | 1007.6 |
| 20260503231527 | 45 | 308 | 11.0 | 24.0 | 0.00 | 0.06 | 0.00 | 55 | 1007.5 |
| 20260503231012 | 46 | 323 | 9.0 | 28.0 | 0.00 | 0.06 | 0.00 | 56 | 1007.6 |
| 20260503230513 | 46 | 314 | 16.0 | 28.0 | 0.00 | 0.06 | 0.00 | 54 | 1007.4 |
| 20260503230029 | 46 | 311 | 14.0 | 26.0 | 0.00 | 0.06 | 0.00 | 53 | 1007.3 |
| 20260503225515 | 47 | 251 | 13.0 | 23.0 | 0.00 | 0.08 | 0.00 | 55 | 1007.3 |
| 20260503225011 | 47 | 277 | 12.0 | 25.0 | 0.00 | 0.08 | 0.00 | 54 | 1007.3 |
| 20260503224531 | 47 | 297 | 10.0 | 27.0 | 0.00 | 0.08 | 0.00 | 55 | 1007.2 |
| 20260503224018 | 47 | 304 | 17.0 | 28.0 | 0.00 | 0.08 | 0.00 | 52 | 1007.1 |
| 20260503223512 | 48 | 319 | 14.0 | 28.0 | 0.00 | 0.08 | 0.00 | 52 | 1007.0 |
| 20260503223028 | 48 | 293 | 16.0 | 28.0 | 0.00 | 0.08 | 0.00 | 51 | 1006.9 |
| 20260503222510 | 48 | 316 | 12.0 | 26.0 | 0.00 | 0.08 | 0.00 | 52 | 1007.0 |
| 20260503222012 | 48 | 323 | 13.0 | 27.0 | 0.00 | 0.08 | 0.00 | 52 | 1006.9 |
| 20260503221531 | 47 | 319 | 16.0 | 29.0 | 0.00 | 0.08 | 0.00 | 53 | 1006.8 |
| 20260503221010 | 48 | 315 | 15.0 | 29.0 | 0.00 | 0.08 | 0.00 | 51 | 1006.8 |
| 20260503220510 | 48 | 321 | 14.0 | 29.0 | 0.00 | 0.08 | 0.00 | 52 | 1006.6 |
| 20260503220028 | 48 | 302 | 8.0 | 21.0 | 0.00 | 0.08 | 0.00 | 53 | 1006.6 |
| 20260503215511 | 47 | 329 | 11.0 | 21.0 | 0.00 | 0.13 | 0.00 | 54 | 1006.5 |
| 20260503215016 | 47 | 306 | 14.0 | 22.0 | 0.00 | 0.13 | 0.00 | 55 | 1006.5 |
| 20260503214531 | 47 | 328 | 10.0 | 24.0 | 0.00 | 0.13 | 0.00 | 55 | 1006.4 |
| 20260503214011 | 48 | 321 | 14.0 | 24.0 | 0.00 | 0.13 | 0.00 | 55 | 1006.4 |
| 20260503213511 | 48 | 327 | 14.0 | 23.0 | 0.00 | 0.13 | 0.00 | 53 | 1006.4 |
| 20260503213039 | 48 | 348 | 13.0 | 21.0 | 0.00 | 0.13 | 0.00 | 54 | 1006.1 |
| 20260503212512 | 48 | 333 | 6.0 | 24.0 | 0.00 | 0.13 | 0.00 | 56 | 1006.4 |
| 20260503212010 | 47 | 283 | 13.0 | 24.0 | 0.00 | 0.13 | 0.00 | 55 | 1006.3 |
| 20260503211535 | 47 | 317 | 14.0 | 25.0 | 0.00 | 0.13 | 0.00 | 55 | 1006.3 |
| 20260503211011 | 48 | 299 | 12.0 | 25.0 | 0.00 | 0.13 | 0.00 | 55 | 1006.2 |
| 20260503210510 | 48 | 360 | 8.0 | 18.0 | 0.00 | 0.13 | 0.00 | 57 | 1006.1 |
| 20260503210030 | 48 | 341 | 8.0 | 22.0 | 0.00 | 0.13 | 0.00 | 57 | 1005.9 |
| 20260503205512 | 48 | 294 | 14.0 | 22.0 | 0.00 | 0.19 | 0.00 | 56 | 1006.0 |
| 20260503205015 | 48 | 309 | 8.0 | 20.0 | 0.00 | 0.19 | 0.00 | 56 | 1005.9 |
| 20260503204532 | 49 | 298 | 8.0 | 16.0 | 0.00 | 0.19 | 0.00 | 57 | 1005.9 |
| 20260503204013 | 49 | 281 | 8.0 | 16.0 | 0.00 | 0.19 | 0.00 | 55 | 1005.9 |
| 20260503203511 | 49 | 298 | 7.0 | 21.0 | 0.00 | 0.19 | 0.00 | 54 | 1005.8 |
| 20260503203029 | 50 | 281 | 10.0 | 21.0 | 0.00 | 0.19 | 0.00 | 54 | 1005.8 |
| 20260503202510 | 49 | 281 | 11.0 | 28.0 | 0.00 | 0.19 | 0.00 | 54 | 1005.8 |
| 20260503202012 | 49 | 360 | 14.0 | 28.0 | 0.00 | 0.19 | 0.00 | 55 | 1005.8 |
| 20260503201529 | 49 | 327 | 14.0 | 24.0 | 0.00 | 0.19 | 0.00 | 56 | 1005.8 |
| 20260503201012 | 49 | 306 | 12.0 | 24.0 | 0.00 | 0.19 | 0.00 | 58 | 1005.8 |
| 20260503200513 | 49 | 317 | 12.0 | 24.0 | 0.00 | 0.19 | 0.00 | 57 | 1005.8 |
| 20260503200033 | 49 | 336 | 10.0 | 22.0 | 0.00 | 0.19 | 0.00 | 56 | 1005.7 |
| 20260503195512 | 49 | 325 | 13.0 | 22.0 | 0.00 | 0.24 | 0.00 | 57 | 1005.7 |
| 20260503195012 | 49 | 295 | 13.0 | 22.0 | 0.00 | 0.24 | 0.00 | 56 | 1005.7 |
| 20260503194532 | 49 | 299 | 9.0 | 24.0 | 0.00 | 0.24 | 0.00 | 58 | 1005.8 |
| 20260503194011 | 49 | 299 | 10.0 | 24.0 | 0.00 | 0.24 | 0.00 | 58 | 1005.8 |
| 20260503193511 | 49 | 315 | 13.0 | 24.0 | 0.00 | 0.24 | 0.00 | 57 | 1005.9 |
| 20260503193028 | 50 | 317 | 11.0 | 24.0 | 0.00 | 0.24 | 0.00 | 57 | 1005.8 |
| 20260503192512 | 50 | 281 | 10.0 | 17.0 | 0.00 | 0.24 | 0.00 | 57 | 1005.8 |
| 20260503192011 | 49 | 346 | 8.0 | 20.0 | 0.00 | 0.24 | 0.00 | 59 | 1005.9 |
| 20260503191533 | 49 | 360 | 11.0 | 21.0 | 0.00 | 0.24 | 0.00 | 60 | 1006.0 |
| 20260503191012 | 48 | 360 | 11.0 | 21.0 | 0.00 | 0.24 | 0.00 | 63 | 1006.0 |
| 20260503190510 | 48 | 321 | 10.0 | 21.0 | 0.00 | 0.24 | 0.00 | 64 | 1006.1 |
| 20260503190042 | 48 | 351 | 11.0 | 21.0 | 0.00 | 0.24 | 0.00 | 64 | 1006.2 |
| 20260503185511 | 47 | 322 | 9.0 | 26.0 | 0.00 | 0.30 | 0.00 | 64 | 1006.1 |
| 20260503185010 | 47 | 333 | 11.0 | 26.0 | 0.00 | 0.30 | 0.00 | 65 | 1006.1 |
| 20260503184531 | 47 | 317 | 14.0 | 26.0 | 0.00 | 0.30 | 0.00 | 64 | 1006.0 |
| 20260503184010 | 47 | 348 | 8.0 | 26.0 | 0.00 | 0.30 | 0.00 | 66 | 1006.2 |
| 20260503183512 | 47 | 360 | 9.0 | 28.0 | 0.00 | 0.30 | 0.00 | 68 | 1006.1 |
| 20260503183030 | 47 | 352 | 14.0 | 28.0 | 0.00 | 0.30 | 0.00 | 68 | 1006.2 |
| 20260503182512 | 47 | 323 | 9.0 | 20.0 | 0.00 | 0.30 | 0.00 | 70 | 1006.2 |
| 20260503182012 | 47 | 327 | 9.0 | 22.0 | 0.00 | 0.30 | 0.00 | 68 | 1006.1 |
| 20260503181529 | 47 | 352 | 14.0 | 22.0 | 0.00 | 0.30 | 0.00 | 67 | 1006.0 |
| 20260503181010 | 47 | 322 | 10.0 | 18.0 | 0.00 | 0.30 | 0.00 | 68 | 1006.1 |
| 20260503180512 | 47 | 331 | 8.0 | 16.0 | 0.00 | 0.30 | 0.00 | 70 | 1006.1 |
| 20260503180038 | 46 | 310 | 9.0 | 16.0 | 0.00 | 0.30 | 0.00 | 71 | 1006.1 |
| 20260503175509 | 46 | 333 | 6.0 | 18.0 | 0.00 | 0.30 | 0.00 | 73 | 1006.2 |
| 20260503175012 | 45 | 347 | 9.0 | 18.0 | 0.00 | 0.30 | 0.00 | 72 | 1006.2 |
| 20260503174531 | 45 | 325 | 11.0 | 18.0 | 0.00 | 0.30 | 0.00 | 75 | 1006.2 |
| 20260503174011 | 45 | 299 | 5.0 | 15.0 | 0.00 | 0.30 | 0.00 | 76 | 1006.2 |
| 20260503173512 | 44 | 351 | 8.0 | 15.0 | 0.00 | 0.30 | 0.00 | 79 | 1006.2 |
| 20260503173028 | 44 | 335 | 10.0 | 15.0 | 0.00 | 0.30 | 0.00 | 80 | 1006.2 |
| 20260503172511 | 44 | 352 | 5.0 | 12.0 | 0.00 | 0.30 | 0.00 | 83 | 1006.4 |
| 20260503172009 | 44 | 288 | 7.0 | 14.0 | 0.00 | 0.30 | 0.00 | 83 | 1006.4 |
| 20260503171538 | 43 | 348 | 8.0 | 14.0 | 0.00 | 0.30 | 0.00 | 82 | 1006.4 |
| 20260503171012 | 44 | 335 | 8.0 | 14.0 | 0.00 | 0.30 | 0.00 | 83 | 1006.4 |
| 20260503170512 | 43 | 317 | 3.0 | 16.0 | 0.00 | 0.30 | 0.00 | 84 | 1006.4 |
| 20260503150510 | 41 | 323 | 10.0 | 16.0 | 0.00 | 0.30 | 0.00 | 88 | 1006.7 |
| 20260503131013 | 40 | 14 | 12.0 | 20.0 | 0.00 | 0.32 | 0.00 | 92 | 1007.5 |
| 20260503130514 | 40 | 12 | 10.0 | 22.0 | 0.00 | 0.32 | 0.00 | 92 | 1007.5 |
| 20260503110512 | 39 | 355 | 9.0 | 15.0 | 0.00 | 0.35 | 0.00 | 97 | 1008.0 |
| 20260503081540 | 40 | 26 | 4.0 | 8.0 | 0.00 | 0.35 | 0.00 | 97 | 1008.9 |
| 20260503081014 | 41 | 0 | 1.0 | 10.0 | 0.00 | 0.35 | 0.00 | 97 | 1009.0 |
| 20260503080513 | 41 | 52 | 2.0 | 10.0 | 0.00 | 0.35 | 0.00 | 97 | 1008.9 |
| 20260503072514 | 41 | 343 | 2.0 | 9.0 | 0.00 | 0.35 | 0.00 | 98 | 1009.2 |
| 20260503072015 | 41 | 352 | 1.0 | 9.0 | 0.00 | 0.35 | 0.00 | 97 | 1009.4 |
| 20260503071530 | 41 | 13 | 4.0 | 9.0 | 0.00 | 0.35 | 0.00 | 97 | 1009.4 |
| 20260503071014 | 41 | 23 | 3.0 | 9.0 | 0.00 | 0.35 | 0.00 | 97 | 1009.2 |
| 20260503070514 | 41 | 19 | 3.0 | 9.0 | 0.00 | 0.35 | 0.00 | 97 | 1009.2 |
| 20260503055012 | 42 | 20 | 1.0 | 7.0 | 0.00 | 0.35 | 0.00 | 97 | 1009.9 |
| 20260503054538 | 42 | 26 | 2.0 | 7.0 | 0.00 | 0.35 | 0.00 | 98 | 1010.0 |
| 20260503054011 | 42 | 0 | 3.0 | 7.0 | 0.00 | 0.35 | 0.00 | 98 | 1010.2 |
| 20260503053514 | 42 | 66 | 3.0 | 7.0 | 0.00 | 0.35 | 0.00 | 97 | 1010.3 |
| 20260503053030 | 42 | 26 | 2.0 | 5.0 | 0.00 | 0.35 | 0.00 | 98 | 1010.3 |
| 20260503052512 | 42 | 46 | 3.0 | 5.0 | 0.00 | 0.35 | 0.00 | 98 | 1010.3 |
| 20260503052014 | 42 | 20 | 1.0 | 5.0 | 0.00 | 0.35 | 0.00 | 98 | 1010.5 |
| 20260503051532 | 42 | 330 | 1.0 | 5.0 | 0.00 | 0.35 | 0.00 | 98 | 1010.5 |
| 20260503051011 | 42 | 318 | 1.0 | 4.0 | 0.00 | 0.35 | 0.00 | 98 | 1010.6 |
| 20260503050513 | 42 | 0 | 0.0 | 4.0 | 0.00 | 0.35 | 0.00 | 98 | 1010.8 |
| 20260503050030 | 42 | 302 | 1.0 | 3.0 | 0.00 | 0.35 | 0.00 | 98 | 1011.0 |
| 20260503045515 | 42 | 0 | 0.0 | 2.0 | 0.00 | 0.35 | 0.00 | 97 | 1011.1 |
| 20260503045013 | 42 | 0 | 0.0 | 2.0 | 0.00 | 0.35 | 0.00 | 97 | 1011.2 |
| 20260503044532 | 42 | 0 | 0.0 | 1.0 | 0.00 | 0.35 | 0.00 | 98 | 1011.2 |
| 20260503044014 | 42 | 0 | 0.0 | 1.0 | 0.00 | 0.35 | 0.00 | 97 | 1011.3 |
| 20260503043512 | 42 | 0 | 0.0 | 3.0 | 0.00 | 0.35 | 0.00 | 97 | 1011.3 |
| 20260503043032 | 42 | 0 | 0.0 | 3.0 | 0.00 | 0.35 | 0.00 | 97 | 1011.4 |
| 20260503042514 | 42 | 318 | 1.0 | 4.0 | 0.00 | 0.35 | 0.00 | 97 | 1011.4 |
| 20260503042013 | 42 | 0 | 0.0 | 6.0 | 0.00 | 0.35 | 0.00 | 97 | 1011.5 |
| 20260503041528 | 42 | 287 | 1.0 | 6.0 | 0.00 | 0.35 | 0.00 | 97 | 1011.6 |
| 20260503041011 | 42 | 306 | 2.0 | 5.0 | 0.00 | 0.35 | 0.00 | 97 | 1011.4 |
| 20260503040514 | 42 | 342 | 2.0 | 5.0 | 0.00 | 0.35 | 0.00 | 97 | 1011.4 |
| 20260503040033 | 42 | 0 | 0.0 | 5.0 | 0.00 | 0.35 | 0.00 | 97 | 1011.6 |
| 20260503035514 | 42 | 0 | 0.0 | 5.0 | 0.00 | 0.35 | 0.35 | 97 | 1011.6 |
| 20260503035015 | 42 | 0 | 1.0 | 7.0 | 0.00 | 0.35 | 0.35 | 97 | 1011.5 |
| 20260503034530 | 42 | 9 | 3.0 | 10.0 | 0.00 | 0.35 | 0.35 | 97 | 1011.4 |
| 20260503034015 | 42 | 42 | 3.0 | 10.0 | 0.00 | 0.35 | 0.35 | 97 | 1011.2 |
| 20260503033514 | 42 | 34 | 1.0 | 12.0 | 0.00 | 0.35 | 0.35 | 97 | 1011.2 |
| 20260503033041 | 42 | 25 | 5.0 | 12.0 | 0.00 | 0.35 | 0.35 | 97 | 1011.2 |
| 20260503032515 | 42 | 32 | 4.0 | 10.0 | 0.00 | 0.35 | 0.35 | 97 | 1011.0 |
| 20260503032013 | 42 | 43 | 3.0 | 7.0 | 0.00 | 0.35 | 0.35 | 97 | 1011.3 |
| 20260503031529 | 42 | 32 | 1.0 | 5.0 | 0.00 | 0.35 | 0.35 | 97 | 1011.5 |
| 20260503031012 | 42 | 41 | 0.0 | 5.0 | 0.00 | 0.35 | 0.35 | 97 | 1011.6 |
| 20260503030515 | 42 | 0 | 1.0 | 5.0 | 0.00 | 0.35 | 0.35 | 97 | 1011.6 |
| 20260503030034 | 42 | 40 | 1.0 | 6.0 | 0.00 | 0.35 | 0.35 | 97 | 1011.5 |
| 20260503025514 | 42 | 0 | 2.0 | 7.0 | 0.00 | 0.35 | 0.35 | 97 | 1011.5 |
| 20260503025013 | 42 | 0 | 2.0 | 7.0 | 0.00 | 0.35 | 0.35 | 97 | 1011.5 |
| 20260503024532 | 42 | 75 | 2.0 | 10.0 | 0.00 | 0.35 | 0.35 | 97 | 1011.4 |
| 20260503024012 | 42 | 52 | 4.0 | 10.0 | 0.01 | 0.35 | 0.35 | 97 | 1011.4 |
| 20260503023511 | 42 | 64 | 4.0 | 10.0 | 0.01 | 0.35 | 0.35 | 97 | 1011.4 |
| 20260503023032 | 42 | 52 | 3.0 | 9.0 | 0.01 | 0.35 | 0.35 | 97 | 1011.5 |
| 20260503022513 | 42 | 50 | 3.0 | 9.0 | 0.01 | 0.35 | 0.35 | 97 | 1011.6 |
| 20260503022013 | 43 | 61 | 3.0 | 8.0 | 0.01 | 0.35 | 0.35 | 97 | 1011.8 |